Regional Weather Roundup
Issued by NWS Wakefield, VA

Home | Current Version | Previous Version | Text Only | Print | Product List | Glossary On
Versions: 1 2 3 4 5 6 7 8 9 10 11 12 13 14 15 16 17 18 19 20 21 22 23 24 25 26 27 28 29 30 31 32 33 34 35 36 37 38 39 40 41 42 43 44 45 46 47 48 49 50
000
ASUS41 KAKQ 302115
RWRAKQ

REGIONAL WEATHER ROUNDUP
NATIONAL WEATHER SERVICE WAKEFIELD VA
500 PM EDT SUN APR 30 2017

Note: "fair" indicates few or no clouds below 12,000 feet with no
significant weather and/or obstructions to visibility. * = Denotes
station may not report precipitation (e.g., rain,snow,etc.),
thunder or fog.

VAZ042-051-052>054-056-302200-
NORTHERN VIRGINIA

CITY           SKY/WX    TMP DP  RH WIND       PRES   REMARKS
WASH NATIONAL  PTSUNNY   87  68  52 S14G28    30.01F
DULLES         PTSUNNY   86  66  51 S15G23    30.00F
FORT BELVOIR   CLOUDY    86  64  48 S13       30.00F
QUANTICO       SUNNY     84  67  56 SW17      30.01F
FREDERICKSBRG* SUNNY     87  65  47 S15G23    30.02F
STAFFORD*      SUNNY     85  63  47 S10G20    30.06F
WARRENTON      SUNNY     87  60  39 SW12G21   30.01F
CULPEPER*      SUNNY     86  65  49 S14G23    30.02F
MANASSAS*        N/A     86  66  51 SW15G21   30.01F
LEESBURG*      MOSUNNY   84  73  70 CALM      30.01F
WINCHESTER     CLOUDY    79  66  65 SE10      29.99S
FRONT ROYAL*   CLOUDY    82  66  57 SE10G18   29.97S
LURAY*         PTCLDY    82  63  51 S13G21    30.00S
$$

VAZ048-049-060>072-079>083-302200-
CENTRAL AND SOUTH CENTRAL VIRGINIA

CITY           SKY/WX    TMP DP  RH WIND       PRES   REMARKS
RICHMOND       MOSUNNY   86  63  45 SW13G21   30.07F
CHESTERFIELD*  FAIR     N/A N/A N/A S13G20    30.09F
PETERSBURG*    PTSUNNY   84  62  47 SW9       30.09F
HANOVER        MOSUNNY   85  62  46 S15       30.07F
TAPPAHANNOCK*  MOSUNNY   87  55  33 S10G21    30.07S
QUINTON*       FAIR      86  64  48 SW10      30.07F
CHARLOTTSVILLE SUNNY     86  63  45 SW12      30.03F
GORDONSVILLE*  PTCLDY    85  65  50 S17       30.02F
ORANGE*        SUNNY     84  63  48 SW16G30   30.03F
LOUISA*          N/A     88  66  48 MISG      30.04F
BUMPASS*       FAIR      84  65  52 S9        30.05F
FARMVILLE*     MOSUNNY   85  63  46 S12G22    30.07S
CREWE*         FAIR      84  65  52 SW10G16   30.09S
FORT PICKETT*  NOT AVBL
CHASE CITY*    FAIR      83  63  49 CALM      30.10F
CLARKSVILLE*   FAIR      82  64  54 SW6       30.10F
SOUTH HILL*    MOSUNNY   82  67  61 SW10      30.16F
LAWRENCEVILLE* MOCLDY    83  66  55 S8        30.10F
EMPORIA*       PTSUNNY   81  64  57 S6        30.11F
$$

VAZ088>098-302200-
SOUTHEAST VIRGINIA

CITY           SKY/WX    TMP DP  RH WIND       PRES   REMARKS
NORFOLK        MOSUNNY   88  65  46 SW16      30.08F
VIRGINIA BEACH PTSUNNY   84  64  50 SW12      30.08F
NORFOLK NAVAL  PTSUNNY   86  65  49 SW9       30.10F
WEST POINT*    MOSUNNY   86  60  41 SW13G20   30.08F
SALUDA*        FAIR      86  65  49 SW7       30.07F
NEWPORT NEWS   MOSUNNY   85  66  53 SW13      30.09F
LANGLEY AFB    NOT AVBL
FORT EUSTIS    MOSUNNY   86  68  54 SW7       30.07F
WILLIAMSBURG*  MOSUNNY   90  64  43 SW9G16    30.09F
HR EXEC AP*    FAIR      88  66  48 SW12G17   30.06F
FRANKLIN*      SUNNY     84  65  53 SW8       30.10F
US460-WAKEFLD  MOSUNNY   85  65  51 VRB7G17   30.09F
$$

VAZ020-022-025-037-045-302200-
WEST CENTRAL AND SOUTHWEST VIRGINIA

CITY           SKY/WX    TMP DP  RH WIND       PRES   REMARKS
STAUNTON*      SUNNY     83  61  47 SW18G24   30.05F
WAYNESBORO*    CLEAR     82  63  52 S15G25    30.06F
HOT SPRINGS VA SUNNY     73  41  31 S8G22     30.17F
LYNCHBURG      MOSUNNY   83  61  47 S17       30.09F
DANVILLE       MOSUNNY   83  66  56 VRB5      30.08F
SOUTH BOSTON*  FAIR      83  62  48 S12G17    30.09F
MARTINSVILLE   MOSUNNY   82  61  48 SW6       30.10F
ROANOKE        MOSUNNY   83  59  44 S14       30.06F
BLACKSBURG     MOSUNNY   80  55  41 S12G22    30.13F
DUBLIN*        MOSUNNY   80  48  32 SW17      30.11F
MARION*        MOSUNNY   78  55  44 SE7G17    30.13F
HILLSVILLE*    MOSUNNY   75  60  58 S10G22    30.13F
RICHLANDS*     CLOUDY    79  53  40 S7        30.08S
WISE*          SUNNY     79  48  34 S16G28    30.08F
ABINGDON*      PTSUNNY   82  52  35 S9G20     30.07S
$$

MDZ021>025-VAZ099-100-302200-
SOUTHERN MARYLAND AND THE DELMARVA PENINSULA

CITY           SKY/WX    TMP DP  RH WIND       PRES   REMARKS
PATUXENT RIVER PTSUNNY   88  65  46 SW12G20   30.04F
BAY BRIDGE APT SUNNY     82  68  61 SE13      30.02F
LEONARDTOWN    SUNNY     86  59  39 SW9       30.05F
DOVER          CLOUDY    64  64 100 E16       30.08F
GEORGETOWN     SUNNY     80  67  64 E9        30.08F
EASTON         MOSUNNY   84  68  58 S8        30.07F
CAMBRIDGE      SUNNY     82  68  61 S14G21    30.04F
SALISBURY      SUNNY     85  68  56 SW12      30.06F
OCEAN CITY     SUNNY     72  65  78 S9        30.09F
WALLOPS ISLAND SUNNY     77  68  73 S13       30.09F
ACCOMACK*      SUNNY     85  68  58 S10       30.09S
$$

NCZ012>017-030>032-302200-
NORTH CENTRAL AND EASTERN NORTH CAROLINA

CITY           SKY/WX    TMP DP  RH WIND       PRES   REMARKS
ROANOKE RAPIDS FAIR      82  68  61 SW12      30.10F
RALEIGH        CLOUDY    86  64  47 SW13      30.10F
ELIZABETH CITY SUNNY     85  71  63 S13G20    30.11F
AHOSKIE*         N/A     83  67  59 S3        30.10F
EDENTON*       MOSUNNY   87  67  50 SW12      30.12F
CURRITUCK*     MOSUNNY   86  65  50 SW9       30.12S
KILL DEVIL HLS SUNNY     83  69  63 S7        30.12F
MANTEO         MOSUNNY   81  71  72 SW17      30.14F
CAPE HATTERAS  MOSUNNY   79  70  74 SW12      30.18F HAZE
TARBORO*       NOT AVBL
GOLDSBORO      MOSUNNY   86  65  49 SW14G22   30.10F
WASHINGTON     MOSUNNY   84  69  58 S12       30.12F
GREENVILLE     SUNNY     86  68  54 SW10G18   30.13F
NEW BERN       SUNNY     84  67  56 SW13G23   30.15F
WILMINGTON     SUNNY     83  65  54 SW14      30.16F
$$

VAZ048-302200-
ELSEWHERE

CITY           SKY/WX    TMP DP  RH WIND       PRES   REMARKS
HARRISBURG PA  CLOUDY    75  62  64 SE9       30.04F
BALTIMORE      CLOUDY    76  64  66 NE14      30.03F
ANNAPOLIS      CLOUDY    78  69  73 SE9       30.01F
ANDREWS AFB    PTSUNNY   85  66  52 S18       30.01F
PHILADELPHIA   CLOUDY    71  50  47 E15       30.11S
HENDERSON NC   CLOUDY    80  62  53 SW13      30.11F
GREENSBORO     LGT RAIN  73  68  84 S20       30.10F
ROCKY MOUNT    PTSUNNY   83  69  62 S7G23     30.11F
$$

VAZ100-302200-
MARINE

STATION/POSITION TIME  TEMP    WIND        PRES    WAVE   SWELL
                       AIR SEA DIR/SP/G            HT/PER HT/PER
                 (UTC) (F)     (DEG/KT/KT) (MB)    (FT/S) (FT/S)
CAPE MAY NJ      2048   62 59   80/ 12/ 15 1018.9F
LEWES DE         2042   59 61  110/ 10/ 11 1018.9F
15NM E FENWICK I 2050   63 59  140/  8/ 10 1020.0F   3/ 6   3/ 6
OCEAN-CITY-INLET 2042   63 56  200/  8/ 12 1019.3F
WACHAPREAGUE VA  2048   76 82  170/ 10/ 13 1018.5F
THOMAS POINT MD  2100   77 63  140/  9/ 10   N/A
GOOSES REEF MD   2100   72 60  200/ 14/ 16 1017.4    2/ 3
COVE POINT MD    2048   69     170/ 11/ 12 1017.8F
SOLOMONS ISLAND  2048   82 65  220/ 12/ 16   N/A
BISHOPS HEAD MD  2048   76 76  160/ 13/ 14 1018.1F
PINEY POINT MD   2048          240/ 12/ 14   N/A
POTOMAC MD       2100   78 67  220/ 10/ 12 1016.6    2/ 3
CAMBRIDGE MD     2042   84 72                N/A
LEWISETTA VA     2048   84 75  220/ 16/ 20 1017.3F
RAPPAHANNOCK LGT 2048          170/ 14/ 15 1019.1F
STINGRAY PT      2100   79 68  230/ 12/ 14 1018.6    1/ 2
YORK RVR RNG VA  2048   81     240/ 13/ 15 1017.9F
YORKTOWN VA      2048   84 69  220/ 12/ 16 1018.3F
JAMESTOWN VA     2100   83 74  230/ 14/ 17   N/A
DOMINION TERM VA 2048   81     250/  9/ 11 1019.1F
KIPTOPEKE VA     2048      67  180/  7/  8   N/A
CHES BAY BRIDGE  2048   77 67  100/  8/  9 1018.7F
CAPE HENRY VA    2048   80     100/  5/  7   N/A
WILLOUBY STN VA  2048   80     260/ 12/ 13 1019.7F
S CRANEY ISL VA  2048   86     220/ 11/ 14 1018.7F
CAPE HENRY BUOY  2042      64                N/A     2/ 5
1ST LANDING BUOY 2100   74 66              1018.9    1/ 3
CAPE CHARLES BUO 2021      67                N/A     2/ 5
64NM E OF VA BCH 2050   64 61  200/ 10/ 12 1021.1F   2/ 6   2/ 6
DUCK PIER NC     2048   82 58  200/ 15/ 19 1019.4F
44100 DUCK FRF   2035      64                N/A     2/ 7
44056 DUCK FRF   2030      60                N/A     2/ 7
OREGON INLET NC  2042   76 80  190/ 20/ 24 1020.9F
HATTERAS NC      2048   77 75  210/ 11/ 15 1021.8F
DIAMOND SHLS NC  2050   77 75  230/ 17/ 21 1022.0F   3/ 5   2/ 8
CAPE LOOKOUT NC  2100   76     210/ 10/ 14 1021.7F
$$



USA.gov is the U.S. government's official web portal to all federal, state and local government web resources and services.